| time (UTC) | temp F | wind direction | speed MPH | gust MPH | rain 1hr in | rain 24hr in | rain mn in | humidity % | barometer mb |
| 20260504060104 | 60 | 281 | 5.0 | 6.0 | 0.00 | 0.01 | 0.00 | 59 | 1019.2 |
| 20260504045604 | 54 | 289 | 3.0 | 6.0 | 0.00 | 0.12 | 0.00 | 78 | 1019.0 |
| 20260504045105 | 53 | 298 | 2.0 | 5.0 | 0.00 | 0.15 | 0.00 | 81 | 1019.0 |
| 20260504044604 | 52 | 292 | 4.0 | 6.0 | 0.00 | 0.17 | 0.00 | 82 | 1018.9 |
| 20260504044104 | 52 | 225 | 3.0 | 6.0 | 0.00 | 0.20 | 0.00 | 84 | 1018.9 |
| 20260504043605 | 51 | 261 | 3.0 | 6.0 | 0.00 | 0.22 | 0.00 | 85 | 1018.9 |
| 20260504043104 | 50 | 248 | 5.0 | 6.0 | 0.00 | 0.25 | 0.00 | 87 | 1018.9 |
| 20260504042604 | 50 | 252 | 4.0 | 7.0 | 0.00 | 0.29 | 0.00 | 88 | 1018.9 |
| 20260504042104 | 49 | 257 | 5.0 | 6.0 | 0.00 | 0.33 | 0.00 | 88 | 1018.9 |
| 20260504041604 | 49 | 270 | 5.0 | 6.0 | 0.00 | 0.36 | 0.00 | 88 | 1018.9 |
| 20260504041105 | 49 | 260 | 3.0 | 6.0 | 0.00 | 0.38 | 0.00 | 88 | 1018.7 |
| 20260504040609 | 49 | 263 | 3.0 | 6.0 | 0.00 | 0.39 | 0.00 | 88 | 1018.7 |
| 20260504040106 | 48 | 267 | 2.0 | 5.0 | 0.00 | 0.39 | 0.00 | 87 | 1018.6 |
| 20260504034607 | 47 | 118 | 3.0 | 6.0 | 0.00 | 0.39 | 0.00 | 92 | 1018.6 |
| 20260504034105 | 47 | 36 | 5.0 | 6.0 | 0.00 | 0.39 | 0.00 | 93 | 1018.6 |
| 20260504033604 | 47 | 157 | 1.0 | 6.0 | 0.00 | 0.39 | 0.00 | 93 | 1018.5 |
| 20260504033104 | 46 | 50 | 4.0 | 6.0 | 0.00 | 0.39 | 0.00 | 94 | 1018.5 |
| 20260504032611 | 46 | 93 | 3.0 | 5.0 | 0.00 | 0.39 | 0.00 | 94 | 1018.5 |
| 20260504032104 | 46 | 336 | 2.0 | 5.0 | 0.00 | 0.39 | 0.00 | 94 | 1018.5 |
| 20260504031604 | 46 | 220 | 2.0 | 6.0 | 0.00 | 0.39 | 0.00 | 93 | 1018.5 |
| 20260504031104 | 46 | 13 | 4.0 | 6.0 | 0.00 | 0.39 | 0.00 | 93 | 1018.7 |
| 20260504030106 | 46 | 332 | 3.0 | 6.0 | 0.00 | 0.39 | 0.00 | 92 | 1018.6 |
| 20260504025604 | 46 | 268 | 4.0 | 7.0 | 0.00 | 0.39 | 0.00 | 92 | 1018.6 |
| 20260504025106 | 46 | 304 | 3.0 | 6.0 | 0.00 | 0.39 | 0.00 | 92 | 1018.6 |
| 20260504024604 | 46 | 335 | 3.0 | 7.0 | 0.00 | 0.39 | 0.00 | 91 | 1018.6 |
| 20260504024104 | 46 | 273 | 3.0 | 6.0 | 0.00 | 0.39 | 0.00 | 91 | 1018.6 |
| 20260504023605 | 46 | 149 | 3.0 | 6.0 | 0.00 | 0.39 | 0.00 | 91 | 1018.6 |
| 20260504023104 | 47 | 348 | 2.0 | 6.0 | 0.00 | 0.39 | 0.00 | 91 | 1018.6 |
| 20260504022604 | 47 | 328 | 5.0 | 6.0 | 0.00 | 0.39 | 0.00 | 91 | 1018.6 |
| 20260504022104 | 46 | 291 | 5.0 | 8.0 | 0.00 | 0.39 | 0.00 | 92 | 1018.6 |
| 20260504021604 | 46 | 3 | 6.0 | 9.0 | 0.00 | 0.39 | 0.00 | 93 | 1018.6 |
| 20260504021104 | 45 | 60 | 3.0 | 7.0 | 0.00 | 0.39 | 0.00 | 94 | 1018.6 |
| 20260504020605 | 44 | 251 | 5.0 | 8.0 | 0.00 | 0.39 | 0.00 | 94 | 1018.6 |
| 20260504015604 | 45 | 296 | 4.0 | 6.0 | 0.00 | 0.39 | 0.00 | 93 | 1018.6 |
| 20260504014622 | 45 | 313 | 3.0 | 5.0 | 0.00 | 0.39 | 0.00 | 91 | 1018.5 |
| 20260504013604 | 45 | 255 | 3.0 | 6.0 | 0.00 | 0.39 | 0.00 | 90 | 1018.7 |
| 20260504013104 | 45 | 235 | 3.0 | 5.0 | 0.00 | 0.39 | 0.00 | 90 | 1018.7 |
| 20260504012107 | 45 | 251 | 3.0 | 5.0 | 0.00 | 0.39 | 0.00 | 91 | 1018.6 |
| 20260504011604 | 45 | 270 | 4.0 | 6.0 | 0.00 | 0.39 | 0.00 | 91 | 1018.6 |
| 20260504011104 | 44 | 270 | 4.0 | 6.0 | 0.00 | 0.39 | 0.00 | 92 | 1018.6 |
| 20260504010615 | 44 | 292 | 5.0 | 6.0 | 0.00 | 0.39 | 0.00 | 92 | 1018.6 |
| 20260504010109 | 44 | 277 | 5.0 | 5.0 | 0.00 | 0.39 | 0.00 | 93 | 1018.6 |
| 20260504005611 | 44 | 270 | 5.0 | 6.0 | 0.00 | 0.39 | 0.00 | 93 | 1018.6 |
| 20260504005105 | 44 | 270 | 3.0 | 5.0 | 0.00 | 0.39 | 0.00 | 93 | 1018.6 |
| 20260504004604 | 44 | 286 | 5.0 | 6.0 | 0.00 | 0.39 | 0.00 | 92 | 1018.6 |
| 20260504004107 | 45 | 297 | 3.0 | 6.0 | 0.00 | 0.40 | 0.00 | 90 | 1018.6 |
| 20260504003604 | 45 | 292 | 4.0 | 6.0 | 0.00 | 0.40 | 0.00 | 88 | 1018.5 |
| 20260504003105 | 46 | 262 | 5.0 | 6.0 | 0.00 | 0.40 | 0.00 | 87 | 1018.5 |
| 20260504002604 | 46 | 248 | 6.0 | 7.0 | 0.00 | 0.40 | 0.00 | 87 | 1018.5 |
| 20260504001604 | 46 | 253 | 7.0 | 9.0 | 0.00 | 0.40 | 0.00 | 88 | 1018.6 |
| 20260504001104 | 45 | 258 | 3.0 | 6.0 | 0.00 | 0.40 | 0.00 | 88 | 1018.6 |
| 20260504000604 | 46 | 259 | 5.0 | 7.0 | 0.00 | 0.40 | 0.00 | 87 | 1018.6 |
| 20260504000104 | 47 | 242 | 4.0 | 8.0 | 0.00 | 0.40 | 0.00 | 84 | 1018.5 |
| 20260503235604 | 47 | 246 | 4.0 | 7.0 | 0.00 | 0.40 | 0.00 | 83 | 1018.4 |
| 20260503235105 | 47 | 338 | 5.0 | 7.0 | 0.00 | 0.40 | 0.00 | 83 | 1018.4 |
| 20260503234605 | 47 | 42 | 3.0 | 6.0 | 0.00 | 0.40 | 0.00 | 82 | 1018.5 |
| 20260503233107 | 48 | 353 | 5.0 | 9.0 | 0.00 | 0.40 | 0.00 | 81 | 1018.5 |
| 20260503232605 | 48 | 115 | 5.0 | 10.0 | 0.00 | 0.40 | 0.00 | 81 | 1018.5 |
| 20260503231104 | 47 | 284 | 5.0 | 9.0 | 0.00 | 0.40 | 0.00 | 85 | 1018.5 |
| 20260503230105 | 45 | 121 | 4.0 | 6.0 | 0.00 | 0.40 | 0.00 | 90 | 1018.6 |
| 20260503224607 | 44 | 270 | 5.0 | 8.0 | 0.00 | 0.40 | 0.00 | 92 | 1018.7 |
| 20260503224105 | 44 | 270 | 5.0 | 6.0 | 0.00 | 0.40 | 0.00 | 92 | 1018.7 |
| 20260503223604 | 44 | 257 | 4.0 | 6.0 | 0.00 | 0.40 | 0.00 | 92 | 1018.7 |
| 20260503223104 | 44 | 258 | 4.0 | 6.0 | 0.00 | 0.40 | 0.00 | 92 | 1018.7 |
| 20260503222104 | 45 | 283 | 3.0 | 6.0 | 0.00 | 0.40 | 0.00 | 90 | 1018.7 |
| 20260503220605 | 46 | 283 | 5.0 | 8.0 | 0.00 | 0.40 | 0.00 | 87 | 1018.6 |
| 20260503220105 | 46 | 260 | 6.0 | 8.0 | 0.00 | 0.40 | 0.00 | 84 | 1018.6 |
| 20260503215107 | 47 | 242 | 6.0 | 9.0 | 0.00 | 0.40 | 0.00 | 83 | 1018.6 |
| 20260503214104 | 46 | 238 | 5.0 | 7.0 | 0.00 | 0.40 | 0.00 | 85 | 1018.6 |
| 20260503213604 | 45 | 334 | 6.0 | 9.0 | 0.00 | 0.41 | 0.00 | 88 | 1018.6 |
| 20260503213104 | 45 | 261 | 5.0 | 7.0 | 0.00 | 0.42 | 0.00 | 88 | 1018.6 |
| 20260503212604 | 45 | 265 | 5.0 | 8.0 | 0.00 | 0.42 | 0.00 | 88 | 1018.6 |
| 20260503212107 | 45 | 269 | 5.0 | 7.0 | 0.00 | 0.42 | 0.00 | 88 | 1018.7 |
| 20260503210111 | 45 | 251 | 4.0 | 6.0 | 0.00 | 0.42 | 0.00 | 88 | 1018.6 |
| 20260503205604 | 46 | 322 | 3.0 | 7.0 | 0.00 | 0.42 | 0.42 | 87 | 1018.6 |
| 20260503205107 | 46 | 300 | 5.0 | 7.0 | 0.00 | 0.42 | 0.42 | 87 | 1018.6 |
| 20260503204605 | 46 | 189 | 2.0 | 6.0 | 0.00 | 0.42 | 0.42 | 87 | 1018.7 |
| 20260503203611 | 46 | 350 | 5.0 | 6.0 | 0.00 | 0.42 | 0.42 | 86 | 1018.7 |
| 20260503203104 | 46 | 323 | 5.0 | 8.0 | 0.00 | 0.42 | 0.42 | 86 | 1018.7 |
| 20260503202604 | 46 | 262 | 6.0 | 9.0 | 0.00 | 0.42 | 0.42 | 86 | 1018.7 |
| 20260503201606 | 46 | 319 | 5.0 | 9.0 | 0.00 | 0.42 | 0.42 | 86 | 1018.6 |
| 20260503201104 | 46 | 255 | 6.0 | 9.0 | 0.00 | 0.42 | 0.42 | 86 | 1018.6 |
| 20260503195604 | 46 | 246 | 5.0 | 9.0 | 0.00 | 0.42 | 0.42 | 85 | 1018.6 |
| 20260503195107 | 47 | 131 | 4.0 | 12.0 | 0.00 | 0.42 | 0.42 | 85 | 1018.6 |
| 20260503194104 | 47 | 262 | 6.0 | 8.0 | 0.00 | 0.42 | 0.42 | 83 | 1018.6 |
| 20260503193605 | 47 | 292 | 7.0 | 12.0 | 0.00 | 0.42 | 0.42 | 83 | 1018.7 |
| 20260503193107 | 47 | 268 | 6.0 | 9.0 | 0.00 | 0.42 | 0.42 | 82 | 1018.7 |
| 20260503192604 | 47 | 239 | 7.0 | 8.0 | 0.00 | 0.42 | 0.42 | 82 | 1018.7 |
| 20260503192104 | 47 | 309 | 6.0 | 12.0 | 0.00 | 0.42 | 0.42 | 82 | 1018.6 |
| 20260503191604 | 47 | 283 | 6.0 | 9.0 | 0.00 | 0.42 | 0.42 | 82 | 1018.6 |
| 20260503191106 | 47 | 331 | 6.0 | 10.0 | 0.00 | 0.42 | 0.42 | 82 | 1018.5 |
| 20260503190605 | 47 | 323 | 7.0 | 10.0 | 0.00 | 0.42 | 0.42 | 82 | 1018.5 |
| 20260503190108 | 47 | 328 | 6.0 | 12.0 | 0.00 | 0.42 | 0.42 | 84 | 1018.3 |
| 20260503185110 | 47 | 301 | 6.0 | 7.0 | 0.00 | 0.42 | 0.42 | 84 | 1018.3 |
| 20260503184607 | 47 | 289 | 7.0 | 12.0 | 0.00 | 0.42 | 0.42 | 84 | 1018.3 |
| 20260503184104 | 47 | 271 | 5.0 | 10.0 | 0.00 | 0.42 | 0.42 | 84 | 1018.3 |
| 20260503183604 | 47 | 332 | 5.0 | 13.0 | 0.00 | 0.42 | 0.42 | 83 | 1018.0 |
| 20260503183104 | 47 | 258 | 5.0 | 9.0 | 0.00 | 0.42 | 0.42 | 83 | 1018.0 |
| 20260503182604 | 47 | 245 | 7.0 | 9.0 | 0.00 | 0.42 | 0.42 | 82 | 1018.0 |
| 20260503182104 | 47 | 326 | 5.0 | 10.0 | 0.00 | 0.42 | 0.42 | 82 | 1017.8 |
| 20260503181604 | 47 | 264 | 6.0 | 12.0 | 0.00 | 0.42 | 0.42 | 81 | 1017.8 |
| 20260503181119 | 47 | 149 | 5.0 | 8.0 | 0.00 | 0.42 | 0.42 | 82 | 1017.6 |
| 20260503180604 | 47 | 246 | 7.0 | 10.0 | 0.00 | 0.42 | 0.42 | 82 | 1017.6 |
| 20260503180112 | 48 | 18 | 6.0 | 10.0 | 0.00 | 0.42 | 0.42 | 82 | 1017.5 |
| 20260503175105 | 48 | 329 | 7.0 | 12.0 | 0.00 | 0.42 | 0.42 | 80 | 1017.5 |
| 20260503174104 | 48 | 158 | 8.0 | 13.0 | 0.00 | 0.42 | 0.42 | 81 | 1017.3 |
| 20260503173604 | 48 | 207 | 5.0 | 8.0 | 0.00 | 0.42 | 0.42 | 80 | 1017.2 |
| 20260503173104 | 48 | 262 | 5.0 | 14.0 | 0.00 | 0.42 | 0.42 | 79 | 1017.2 |
| 20260503172605 | 48 | 21 | 6.0 | 12.0 | 0.00 | 0.42 | 0.42 | 78 | 1017.2 |
| 20260503171604 | 49 | 348 | 6.0 | 12.0 | 0.00 | 0.42 | 0.42 | 74 | 1017.1 |
| 20260503171112 | 49 | 20 | 6.0 | 15.0 | 0.00 | 0.42 | 0.42 | 73 | 1016.8 |
| 20260503170611 | 49 | 282 | 8.0 | 16.0 | 0.00 | 0.42 | 0.42 | 69 | 1016.8 |
| 20260503170104 | 49 | 59 | 12.0 | 16.0 | 0.00 | 0.42 | 0.42 | 68 | 1016.6 |
| 20260503160105 | 51 | 337 | 7.0 | 12.0 | 0.00 | 0.42 | 0.42 | 66 | 1016.6 |
| 20260503150604 | 51 | 301 | 12.0 | 17.0 | 0.00 | 0.42 | 0.42 | 66 | 1016.5 |
| 20260503150105 | 51 | 109 | 8.0 | 16.0 | 0.00 | 0.42 | 0.42 | 64 | 1016.4 |
| 20260503140105 | 53 | 349 | 10.0 | 16.0 | 0.00 | 0.42 | 0.42 | 65 | 1016.5 |
| 20260503131105 | 52 | 81 | 9.0 | 18.0 | 0.00 | 0.42 | 0.42 | 71 | 1016.4 |
| 20260503130604 | 54 | 47 | 12.0 | 18.0 | 0.00 | 0.42 | 0.42 | 67 | 1016.4 |
| 20260503130104 | 54 | 16 | 10.0 | 16.0 | 0.00 | 0.42 | 0.42 | 67 | 1016.4 |
| 20260503110605 | 52 | 107 | 7.0 | 13.0 | 0.00 | 0.42 | 0.42 | 78 | 1016.8 |
| 20260503110104 | 52 | 121 | 7.0 | 15.0 | 0.00 | 0.42 | 0.42 | 78 | 1016.8 |
| 20260503090105 | 55 | 343 | 8.0 | 12.0 | 0.00 | 0.42 | 0.42 | 71 | 1016.6 |
| 20260503081604 | 51 | 90 | 14.0 | 21.0 | 0.01 | 0.42 | 0.42 | 81 | 1015.9 |
| 20260503080605 | 50 | 98 | 17.0 | 21.0 | 0.01 | 0.42 | 0.42 | 82 | 1015.6 |
| 20260503080104 | 49 | 42 | 17.0 | 23.0 | 0.01 | 0.42 | 0.42 | 82 | 1015.8 |
| 20260503072604 | 50 | 34 | 14.0 | 21.0 | 0.00 | 0.41 | 0.41 | 91 | 1016.0 |
| 20260503071104 | 49 | 78 | 13.0 | 17.0 | 0.00 | 0.41 | 0.41 | 95 | 1016.1 |
| 20260503070606 | 49 | 36 | 12.0 | 16.0 | 0.00 | 0.41 | 0.41 | 96 | 1016.1 |
| 20260503070105 | 49 | 86 | 7.0 | 14.0 | 0.00 | 0.41 | 0.41 | 99 | 1016.2 |